Starlink 32482

operational
NORAD ID: 62141 Int'l Des: 2024-224 Owner: SPXS Country: US Constellation: starlink
LEOCIRCULAR

Starlink 32482について

説明を読み込み中...

リアルタイム位置

3D地球を読み込み中...

次回通過

高度履歴

Altitude vs Time

uPlot chart will show altitude changes over time

軌道要素

1 62141U 24224C 25352.16197246 .00031856 00000-0 11621-2 0 9997
2 62141 42.9997 258.3410 0001530 274.8335 85.2342 15.27582274 59854
Epoch: Dec 18, 2025 • Age: 29 hours

現在のステータス

高度 492.1 km
速度 7.62 km/s
衛星直下点 -34.93°S, 106.11°W
打ち上げ日 Nov 30, 2024
運用期間 1 years
タイプ internet

技術仕様

分類 Payload
質量 730.00 kg
乾燥質量 700.00 kg
総質量 730.00 kg
長さ 0.30 m
直径 4.10 m
スパン 29.00 m
形状 Box + pan
製造者 SPXS
バスタイプ Starlink V2M
フェーズステータス In Orbit
所有者/国 SPXS/US

大規模コンステレーション

Loading constellations...